{"data":{"norad_id":68877,"epoch":"2026-09-20T04:34:33.926880Z","epoch_age_seconds":42138,"freshness":"FRESH","line1":"1 68877U 26095P   26263.19067045  .00000684  00000+0  11871-3 0  9997","line2":"2 68877  51.9007 180.5596 0001600  43.4041 316.7047 14.79932773 21820","mean_motion":14.79932773,"eccentricity":0.00016,"inclination_deg":51.9007,"raan_deg":180.5596,"arg_perigee_deg":43.4041,"mean_anomaly_deg":316.7047,"bstar":0.00011871,"rev_number":2182,"period_min":97.301717096308,"perigee_km":628.41511802251,"apogee_km":630.65757349315,"semimajor_km":7007.6733457578,"source":"CELESTRAK","updated_at":"2026-09-20T09:00:24.535527Z"}}